KC9EM-13 Weather Reports


time (UTC)temp
F
wind
direction
speed
knots
gust
knots
rain 1hr
in
rain 24hr
in
rain mn
in
humidity
%
barometer
mb
20260503184601 65 181 9.6 21.7 0.00 0.00 0.00 47 1016.6
20260503183047 64 235 7.8 20.0 0.00 0.00 0.00 48 1017.0
20260503181549 62 192 11.3 19.1 0.00 0.00 0.00 51 1017.3
20260503180051 63 214 11.3 20.9 0.00 0.00 0.00 48 1017.7
20260503174603 63 197 10.4 19.1 0.00 0.00 0.00 51 1017.9
20260503173048 63 218 8.7 19.1 0.00 0.00 0.00 51 1018.1
20260503171542 63 225 8.7 18.2 0.00 0.00 0.00 51 1018.4
20260503081549 43 208 0.9 3.5 0.00 0.01 0.00 70 1019.3
20260503071545 43 211 1.7 3.5 0.00 0.01 0.00 70 1019.3
20260503054545 44 199 0.9 2.6 0.00 0.01 0.00 67 1019.6
20260503053044 43 215 1.7 2.6 0.00 0.01 0.00 69 1019.8
20260503051545 44 0 0.0 0.9 0.00 0.01 0.00 69 1019.7
20260503050052 44 0 0.0 0.9 0.00 0.01 0.00 67 1019.8
20260503044548 44 0 0.0 0.0 0.00 0.01 0.00 66 1019.8
20260503043045 44 0 0.0 0.0 0.00 0.01 0.00 65 1019.7
20260503041544 45 0 0.0 0.0 0.00 0.01 0.00 65 1019.6
20260503040048 45 0 0.0 0.9 0.00 0.01 0.00 64 1019.6
20260503034600 45 348 0.0 0.9 0.00 0.01 0.01 62 1019.6
20260503033051 45 0 0.0 0.0 0.00 0.01 0.01 58 1019.6
20260503031547 46 0 0.0 0.0 0.00 0.01 0.01 59 1019.7
20260503030050 46 0 0.0 0.0 0.00 0.01 0.01 56 1019.8
20260503024551 47 0 0.0 0.0 0.00 0.01 0.01 55 1019.7
20260503023049 47 0 0.0 0.0 0.00 0.01 0.01 55 1019.5
20260503021550 47 0 0.0 0.0 0.00 0.01 0.01 55 1019.4
20260503020043 48 0 0.0 0.9 0.00 0.01 0.01 56 1019.3
20260503014550 49 0 0.0 0.0 0.00 0.01 0.01 55 1019.2
20260503013046 49 0 0.0 0.9 0.00 0.01 0.01 53 1019.1
20260503011547 50 0 0.0 1.7 0.00 0.01 0.01 52 1018.8
20260503004549 52 348 0.9 2.6 0.00 0.01 0.01 47 1018.7
20260503003056 52 349 1.7 4.3 0.00 0.01 0.01 46 1018.6
20260503001604 53 344 1.7 7.0 0.00 0.01 0.01 45 1018.5
20260503000049 53 19 1.7 8.7 0.00 0.01 0.01 43 1018.4
20260502234548 54 9 5.2 12.2 0.00 0.01 0.01 41 1018.3
20260502233045 55 343 4.3 11.3 0.00 0.01 0.01 40 1018.3
20260502231549 55 25 4.3 12.2 0.00 0.01 0.01 40 1018.3
20260502230046 55 351 5.2 12.2 0.00 0.01 0.01 41 1018.3
20260502224546 56 20 6.1 13.0 0.00 0.01 0.01 40 1018.3
20260502223048 55 331 4.3 10.4 0.00 0.01 0.01 42 1018.3
20260502221549 55 355 3.5 13.0 0.00 0.01 0.01 46 1018.1
20260502220046 55 12 5.2 10.4 0.00 0.01 0.01 43 1018.3
20260502214558 56 333 4.3 9.6 0.00 0.01 0.01 42 1018.1
20260502213047 57 304 4.3 12.2 0.00 0.01 0.01 42 1018.0
20260502211545 57 334 5.2 12.2 0.00 0.01 0.01 42 1017.9
20260502210047 57 19 2.6 11.3 0.00 0.01 0.01 42 1017.9
20260502204545 57 331 3.5 10.4 0.00 0.01 0.01 43 1017.9
20260502203044 56 13 4.3 8.7 0.00 0.01 0.01 46 1018.2
20260502201551 58 342 4.3 8.7 0.00 0.01 0.01 44 1018.3
20260502200045 55 5 2.6 7.8 0.00 0.01 0.01 48 1018.5
20260502194548 55 305 2.6 9.6 0.00 0.01 0.01 50 1018.3
20260502193044 54 342 4.3 8.7 0.00 0.01 0.01 50 1018.5
20260502191549 54 332 3.5 10.4 0.00 0.01 0.01 51 1018.6
20260502190046 54 355 3.5 7.8 0.00 0.01 0.01 50 1018.6